ONEWEB-0285 (49075 NORAD) Tracking and Keplerian Element Data

This shows tracking and keplerian element data for the satellite.

Feedback or suggestion? Click here.




ElementValue
Catalog49075
NameONEWEB-0285
Epoch Orbit355
Epoch Day300.58334491
Epoch Year2021
RAAN344.2866
Inclination87.5345
Eccentricity0.0019786
Argument of Perigee64.28
Mean Anonmoly305.7036
Mean Motion14.85825154
Decay Rate0.00036566
L11 49075U 21075A 21300.58334491 .00036566 00000-0 41692-2 0 9993
L22 49075 87.5345 344.2866 0019786 64.2800 305.7036 14.85825154 3553

Live tracking and technical data element details for ONEWEB-0285 (NORAD 49075). ONEWEB-0285 can be tracked NOW for your location showing map with azimuth and elevation plus other details from your city location.

Track the satellite on the map from your city or location and see movement details for azimuth, elevation, latitude, longitude, range, height, and movement on the map or in text.







IsCatalogInMostPopularTable: catalog: 49075, numindb: 18
Update: records affected: 1



GetName: 49075 ONEWEB-0285

Hit Count: updated at: Thu, 28 Oct 2021 12:12:00 GMT